Weather History for Rockland, ME

Change the Weather History Date:

Thursday, December 29, 2011

  Actual Average Record
Temperature  
Mean Temperature 22 °F -  
Max Temperature 26 °F 32 °F 48 °F (2003)
Min Temperature 17 °F 18 °F 8 °F (2012)
Degree Days  
Heating Degree Days 44    
Moisture  
Dew Point -5 °F    
Average Humidity 32    
Maximum Humidity 54    
Minimum Humidity 20    
Precipitation  
Precipitation 0.00 in - - ()
Sea Level Pressure  
Sea Level Pressure 29.67 in    
Wind  
Wind Speed 16 mph (West)    
Max Wind Speed 25 mph    
Max Gust Speed 32 mph    
Visibility 10 miles    
Events      
Averages and records for this station are not official NWS values.
T = Trace of Precipitation, MM = Missing Value Source: NWS Daily Summary

Daily Weather History Graph

Daily Weather History Graph

Search for Another Location

Airport:

Trip Planner

Search our weather history database for the weather conditions in past years. The results will help you decide how hot, cold, wet, or windy it might be!

Date:

Astronomy

Dec. 29, 2011 Rise Set
Actual Time 7:10 AM EST 4:05 PM EST
Civil Twilight 6:37 AM EST 4:38 PM EST
Nautical Twilight 6:01 AM EST 5:15 PM EST
Astronomical Twilight 5:26 AM EST 5:50 PM EST
Moon 9:51 AM EST (12/29) 9:51 PM EST (12/29)
Length of Visible Light 10h 01m
Length of Day
8h 55m
Waxing Crescent, 26% of the Moon is Illuminated
Dec 29
Waxing Crescent
Jan 1
First Quarter
Jan 9
Full
Jan 16
Last Quarter
Jan 23
New

Hourly Weather History & Observations

Time (EST) Temp. Windchill Dew Point Humidity Pressure Visibility Wind Dir Wind Speed Gust Speed Precip Events Conditions
12:15 AM - - - N/A% 29.42 in 10.0 mi West 12.7 mph 18.4 mph N/A   Clear
12:36 AM - - - N/A% 29.42 in 10.0 mi West 15.0 mph - N/A   Clear
12:55 AM - - - N/A% 29.42 in 10.0 mi West 18.4 mph 24.2 mph N/A   Clear
1:15 AM - - - N/A% 29.44 in 10.0 mi West 11.5 mph 18.4 mph N/A   Clear
1:35 AM - - - N/A% 29.45 in 10.0 mi West 11.5 mph 20.7 mph N/A   Clear
1:55 AM - - - N/A% 29.45 in 10.0 mi West 16.1 mph 24.2 mph N/A   Clear
2:15 AM 21.2 °F 6.4 °F 5.0 °F 50% 29.46 in 10.0 mi West 18.4 mph 23.0 mph N/A   Clear
2:35 AM - - - N/A% 29.46 in 10.0 mi West 15.0 mph 18.4 mph N/A   Clear
2:55 AM 19.4 °F 5.0 °F 5.0 °F 54% 29.48 in 10.0 mi West 16.1 mph 23.0 mph N/A   Clear
3:15 AM - - - N/A% 29.48 in 10.0 mi West 16.1 mph 25.3 mph N/A   Clear
3:35 AM - - - N/A% 29.49 in 10.0 mi West 18.4 mph 27.6 mph N/A   Clear
3:55 AM - - - N/A% 29.49 in 10.0 mi West 12.7 mph 21.9 mph N/A   Clear
4:15 AM - - - N/A% 29.50 in 10.0 mi West 17.3 mph 20.7 mph N/A   Clear
4:35 AM - - - N/A% 29.51 in 10.0 mi West 13.8 mph 19.6 mph N/A   Clear
4:55 AM - - - N/A% 29.53 in 10.0 mi West 13.8 mph 26.5 mph N/A   Clear
5:15 AM 17.6 °F 1.3 °F 3.2 °F 53% 29.54 in 10.0 mi West 19.6 mph 25.3 mph N/A   Clear
5:35 AM 17.6 °F 1.7 °F 3.2 °F 53% 29.55 in 10.0 mi West 18.4 mph 23.0 mph N/A   Clear
6:15 AM 17.6 °F 2.2 °F 1.4 °F 49% 29.57 in 10.0 mi West 17.3 mph 29.9 mph N/A   Clear
6:35 AM 17.6 °F 1.7 °F 1.4 °F 49% 29.59 in 10.0 mi West 18.4 mph 26.5 mph N/A   Clear
6:55 AM 17.6 °F 0.9 °F 1.4 °F 49% 29.60 in 10.0 mi West 20.7 mph 26.5 mph N/A   Clear
7:15 AM 17.6 °F 1.3 °F 1.4 °F 49% 29.61 in 10.0 mi West 19.6 mph 27.6 mph N/A   Clear
7:55 AM 17.6 °F 1.7 °F 1.4 °F 49% 29.64 in 10.0 mi West 18.4 mph 28.8 mph N/A   Clear
8:16 AM 17.6 °F 1.7 °F 1.4 °F 49% 29.65 in 10.0 mi West 18.4 mph 28.8 mph N/A   Clear
8:35 AM 17.6 °F 2.7 °F 1.4 °F 49% 29.66 in 10.0 mi West 16.1 mph 23.0 mph N/A   Clear
9:15 AM 19.4 °F 4.5 °F - N/A% 29.68 in 10.0 mi West 17.3 mph 28.8 mph N/A   Clear
9:35 AM 19.4 °F 4.5 °F -14.8 °F 21% 29.69 in 10.0 mi West 17.3 mph 31.1 mph N/A   Clear
9:55 AM 19.4 °F 3.6 °F -9.4 °F 28% 29.69 in 10.0 mi West 19.6 mph 27.6 mph N/A   Clear
10:35 AM 21.2 °F 5.6 °F -5.8 °F 30% 29.70 in 10.0 mi West 20.7 mph 26.5 mph N/A   Clear
10:55 AM 21.2 °F 6.0 °F -5.8 °F 30% 29.70 in 10.0 mi West 19.6 mph 28.8 mph N/A   Clear
11:15 AM 21.2 °F 5.6 °F -4.0 °F 33% 29.70 in 10.0 mi West 20.7 mph - N/A   Clear
11:35 AM 23.0 °F 11.1 °F -5.8 °F 28% 29.70 in 10.0 mi West 12.7 mph 25.3 mph N/A   Clear
12:15 PM 24.8 °F 10.3 °F -9.4 °F 22% 29.69 in 10.0 mi West 20.7 mph 32.2 mph N/A   Clear
12:35 PM 24.8 °F 11.5 °F -9.4 °F 22% 29.70 in 10.0 mi West 17.3 mph 31.1 mph N/A   Clear
12:55 PM 24.8 °F 11.5 °F -11.2 °F 20% 29.70 in 10.0 mi West 17.3 mph 25.3 mph N/A   Clear
1:15 PM 26.6 °F 12.0 °F -9.4 °F 21% 29.70 in 10.0 mi West 23.0 mph 29.9 mph N/A   Clear
1:35 PM 26.6 °F 12.7 °F -9.4 °F 21% 29.70 in 10.0 mi West 20.7 mph 27.6 mph N/A   Clear
1:55 PM 26.6 °F 12.0 °F -9.4 °F 21% 29.71 in 10.0 mi West 23.0 mph 31.1 mph N/A   Clear
2:15 PM 26.6 °F 11.4 °F -7.6 °F 22% 29.71 in 10.0 mi West 25.3 mph 32.2 mph N/A   Clear
2:35 PM 26.6 °F 12.4 °F -7.6 °F 22% 29.72 in 10.0 mi West 21.9 mph 28.8 mph N/A   Clear
2:55 PM 26.6 °F 12.4 °F -7.6 °F 22% 29.74 in 10.0 mi West 21.9 mph 26.5 mph N/A   Clear
3:15 PM 26.6 °F 12.0 °F -7.6 °F 22% 29.75 in 10.0 mi West 23.0 mph 29.9 mph N/A   Clear
3:35 PM 24.8 °F 11.5 °F -7.6 °F 24% 29.76 in 10.0 mi West 17.3 mph 28.8 mph N/A   Clear
4:15 PM 24.8 °F 10.7 °F -7.6 °F 24% 29.80 in 10.0 mi West 19.6 mph 25.3 mph N/A   Clear
4:35 PM 24.8 °F 10.0 °F -7.6 °F 24% 29.81 in 10.0 mi West 21.9 mph 26.5 mph N/A   Clear
4:55 PM 24.8 °F 11.9 °F -5.8 °F 26% 29.83 in 10.0 mi West 16.1 mph 20.7 mph N/A   Clear
5:15 PM 24.8 °F 12.9 °F -5.8 °F 26% 29.83 in 10.0 mi West 13.8 mph - N/A   Clear
5:55 PM 23.0 °F 10.1 °F -5.8 °F 28% 29.84 in 10.0 mi West 15.0 mph 21.9 mph N/A   Clear
6:15 PM 23.0 °F 10.1 °F -5.8 °F 28% 29.85 in 10.0 mi West 15.0 mph 19.6 mph N/A   Clear
6:35 PM 23.0 °F 10.6 °F -5.8 °F 28% 29.86 in 10.0 mi West 13.8 mph - N/A   Clear
6:55 PM 23.0 °F 8.3 °F -5.8 °F 28% 29.87 in 10.0 mi West 19.6 mph 25.3 mph N/A   Clear
7:15 PM 23.0 °F 10.1 °F -5.8 °F 28% 29.88 in 10.0 mi West 15.0 mph 24.2 mph N/A   Clear
7:35 PM 23.0 °F 10.6 °F -4.0 °F 31% 29.89 in 10.0 mi West 13.8 mph 23.0 mph N/A   Clear
7:55 PM 23.0 °F 10.6 °F -2.2 °F 33% 29.90 in 10.0 mi West 13.8 mph 18.4 mph N/A   Clear
8:15 PM 21.2 °F 8.3 °F -5.8 °F 30% 29.90 in 10.0 mi West 13.8 mph - N/A   Clear
8:35 PM 21.2 °F 6.8 °F -5.8 °F 30% 29.90 in 10.0 mi West 17.3 mph 21.9 mph N/A   Clear
8:55 PM 21.2 °F 8.3 °F -5.8 °F 30% 29.90 in 10.0 mi West 13.8 mph 21.9 mph N/A   Clear
9:35 PM 21.2 °F 7.3 °F -5.8 °F 30% 29.90 in 10.0 mi West 16.1 mph 25.3 mph N/A   Clear
9:55 PM 21.2 °F 8.3 °F -5.8 °F 30% 29.91 in 10.0 mi West 13.8 mph - N/A   Clear
10:35 PM 21.2 °F 8.3 °F -5.8 °F 30% 29.93 in 10.0 mi West 13.8 mph 20.7 mph N/A   Clear
10:55 PM 21.2 °F 9.5 °F -4.0 °F 33% 29.94 in 10.0 mi West 11.5 mph - N/A   Clear
11:15 PM 21.2 °F 9.5 °F -5.8 °F 30% 29.95 in 10.0 mi West 11.5 mph - N/A   Clear
11:35 PM 21.2 °F 10.9 °F -5.8 °F 30% 29.95 in 10.0 mi West 9.2 mph - N/A   Clear
11:55 PM 21.2 °F 10.9 °F -7.6 °F 28% 29.96 in 10.0 mi WSW 9.2 mph - N/A   Clear